Back to catalog

IRIDIUM 33 DEB

AlivePO
NORAD 40998·DEBRIS·🇺🇸 United States

Launched Sep 14, 1997 from Baikonur Cosmodrome

Loading…

Next Passes (next 24 hours)

TLE

FreshSource: Space-Track

Epoch: Sep 12, 2026, 09:53 UTC

1 40998U 97051ABL 26255.41201568  .00000804  00000-0  22044-3 0  9996
2 40998  86.3801 296.6900 0005372 238.7455 182.3254 14.45926966106353

Track IRIDIUM 33 DEB in real time with AllMySat

Download on the App Store